Time,TemperatureF,DewpointF,PressureIn,WindDirection,WindDirectionDegrees,WindSpeedMPH,WindSpeedGustMPH,Humidity,HourlyPrecipIn,Conditions,Clouds,dailyrainin,SoftwareType,DateUTC
2013-04-27 00:02:00,39.5,37.4,30.34,SSE,153,0.0,0.0,92,0.00,,,0.00,Wunderground v.1.12,2013-04-27 04:02:00,
2013-04-27 00:03:00,39.3,37.2,30.34,SSE,153,0.0,0.0,92,0.00,,,0.00,Wunderground v.1.12,2013-04-27 04:03:00,
2013-04-27 00:04:00,39.3,37.2,30.34,SSE,153,0.0,0.0,92,0.00,,,0.00,Wunderground v.1.12,2013-04-27 04:04:00,
2013-04-27 00:07:00,39.1,37.0,30.34,SSE,153,0.0,0.0,92,0.00,,,0.00,Wunderground v.1.12,2013-04-27 04:07:00,
2013-04-27 00:08:00,39.1,37.0,30.34,SSE,153,0.0,0.0,92,0.00,,,0.00,Wunderground v.1.12,2013-04-27 04:08:00,
2013-04-27 00:13:00,39.2,37.1,30.34,SSE,153,0.0,0.0,92,0.00,,,0.00,Wunderground v.1.12,2013-04-27 04:13:00,
2013-04-27 00:20:00,39.5,37.4,30.34,SSE,153,0.0,0.0,92,0.00,,,0.00,Wunderground v.1.12,2013-04-27 04:20:00,
2013-04-27 00:25:00,39.3,37.2,30.34,SSE,153,0.0,0.0,92,0.00,,,0.00,Wunderground v.1.12,2013-04-27 04:25:00,
2013-04-27 00:30:00,39.3,37.4,30.34,SSE,153,0.0,0.0,93,0.00,,,0.00,Wunderground v.1.12,2013-04-27 04:30:00,
2013-04-27 00:36:00,39.3,37.4,30.34,SSE,153,0.0,0.0,93,0.00,,,0.00,Wunderground v.1.12,2013-04-27 04:36:00,
2013-04-27 00:41:00,39.2,37.3,30.34,SSE,153,0.0,0.0,93,0.00,,,0.00,Wunderground v.1.12,2013-04-27 04:41:00,
2013-04-27 00:46:00,39.1,37.2,30.34,SSE,153,0.0,0.0,93,0.00,,,0.00,Wunderground v.1.12,2013-04-27 04:46:00,
2013-04-27 00:52:00,38.9,37.0,30.34,SSE,153,0.0,0.0,93,0.00,,,0.00,Wunderground v.1.12,2013-04-27 04:52:00,
2013-04-27 00:57:00,39.1,37.2,30.34,SSE,153,0.0,0.0,93,0.00,,,0.00,Wunderground v.1.12,2013-04-27 04:57:00,
2013-04-27 01:03:00,39.3,37.4,30.34,N/A,-737280,0.0,0.0,93,0.00,,,0.00,Wunderground v.1.12,2013-04-27 05:03:00,
2013-04-27 01:09:00,39.1,37.2,30.34,SSE,153,0.0,0.0,93,0.00,,,0.00,Wunderground v.1.12,2013-04-27 05:09:00,
2013-04-27 01:14:00,38.8,36.9,30.34,SSE,153,0.0,0.0,93,0.00,,,0.00,Wunderground v.1.12,2013-04-27 05:14:00,
2013-04-27 01:19:00,38.6,36.8,30.34,SSE,153,0.0,0.0,93,0.00,,,0.00,Wunderground v.1.12,2013-04-27 05:19:00,
2013-04-27 01:24:00,38.6,36.8,30.34,SSE,153,0.0,0.0,93,0.00,,,0.00,Wunderground v.1.12,2013-04-27 05:24:00,
2013-04-27 01:30:00,38.8,36.9,30.34,SSE,153,0.0,0.0,93,0.00,,,0.00,Wunderground v.1.12,2013-04-27 05:30:00,
2013-04-27 01:35:00,38.6,36.8,30.34,SSE,153,0.0,0.0,93,0.00,,,0.00,Wunderground v.1.12,2013-04-27 05:35:00,
2013-04-27 01:41:00,38.5,36.7,30.34,SSE,153,0.0,0.0,93,0.00,,,0.00,Wunderground v.1.12,2013-04-27 05:41:00,
2013-04-27 01:46:00,38.3,36.5,30.34,SSE,153,0.0,0.0,93,0.00,,,0.00,Wunderground v.1.12,2013-04-27 05:46:00,
2013-04-27 01:52:00,38.2,36.6,30.34,SSE,153,0.0,0.0,94,0.00,,,0.00,Wunderground v.1.12,2013-04-27 05:52:00,
2013-04-27 01:58:00,38.2,36.6,30.34,SSE,153,0.0,0.0,94,0.00,,,0.00,Wunderground v.1.12,2013-04-27 05:58:00,
2013-04-27 02:03:00,38.8,36.9,30.34,N/A,-737280,0.0,0.0,93,0.00,,,0.00,Wunderground v.1.12,2013-04-27 06:03:00,
2013-04-27 02:08:00,38.0,36.4,30.34,SSE,153,0.0,0.0,94,0.00,,,0.00,Wunderground v.1.12,2013-04-27 06:08:00,
2013-04-27 02:13:00,38.0,36.4,30.34,SSE,153,0.0,0.0,94,0.00,,,0.00,Wunderground v.1.12,2013-04-27 06:13:00,
2013-04-27 02:19:00,38.3,37.0,30.33,SSE,153,0.0,0.0,95,0.00,,,0.00,Wunderground v.1.12,2013-04-27 06:19:00,
2013-04-27 02:25:00,38.5,36.9,30.33,SSE,153,0.0,0.0,94,0.00,,,0.00,Wunderground v.1.12,2013-04-27 06:25:00,
2013-04-27 02:30:00,38.3,36.7,30.33,SSE,153,0.0,0.0,94,0.00,,,0.00,Wunderground v.1.12,2013-04-27 06:30:00,
2013-04-27 02:35:00,38.5,37.2,30.33,SSE,153,0.0,0.0,95,0.00,,,0.00,Wunderground v.1.12,2013-04-27 06:35:00,
2013-04-27 02:40:00,38.5,37.2,30.33,SSE,153,0.0,0.0,95,0.00,,,0.00,Wunderground v.1.12,2013-04-27 06:40:00,
2013-04-27 02:46:00,38.3,36.7,30.33,SSE,153,0.0,0.0,94,0.00,,,0.00,Wunderground v.1.12,2013-04-27 06:46:00,
2013-04-27 02:52:00,38.0,36.4,30.33,SSE,153,0.0,0.0,94,0.00,,,0.00,Wunderground v.1.12,2013-04-27 06:52:00,
2013-04-27 02:58:00,38.0,36.7,30.33,SSE,153,0.0,0.0,95,0.00,,,0.00,Wunderground v.1.12,2013-04-27 06:58:00,
2013-04-27 03:03:00,38.0,36.7,30.32,SSE,153,0.0,0.0,95,0.00,,,0.00,Wunderground v.1.12,2013-04-27 07:03:00,
2013-04-27 03:08:00,38.3,37.0,30.32,SSE,153,0.0,0.0,95,0.00,,,0.00,Wunderground v.1.12,2013-04-27 07:08:00,
2013-04-27 03:13:00,38.2,36.9,30.32,SSE,153,0.0,0.0,95,0.00,,,0.00,Wunderground v.1.12,2013-04-27 07:13:00,
2013-04-27 03:20:00,37.8,36.5,30.32,SSE,153,0.0,0.0,95,0.00,,,0.00,Wunderground v.1.12,2013-04-27 07:20:00,
2013-04-27 03:25:00,37.6,36.3,30.32,SSE,153,0.0,0.0,95,0.00,,,0.00,Wunderground v.1.12,2013-04-27 07:25:00,
2013-04-27 03:31:00,37.6,36.3,30.32,SSE,153,0.0,0.0,95,0.00,,,0.00,Wunderground v.1.12,2013-04-27 07:31:00,
2013-04-27 03:36:00,37.6,36.3,30.32,SSE,153,0.0,0.0,95,0.00,,,0.00,Wunderground v.1.12,2013-04-27 07:36:00,
2013-04-27 03:41:00,37.6,36.3,30.32,SSE,153,0.0,0.0,95,0.00,,,0.00,Wunderground v.1.12,2013-04-27 07:41:00,
2013-04-27 03:47:00,37.2,35.9,30.32,SSE,153,0.0,0.0,95,0.00,,,0.00,Wunderground v.1.12,2013-04-27 07:47:00,
2013-04-27 03:52:00,36.8,35.5,30.32,SSE,153,0.0,0.0,95,0.00,,,0.00,Wunderground v.1.12,2013-04-27 07:52:00,
2013-04-27 03:58:00,36.8,35.5,30.32,SSE,153,0.0,0.0,95,0.00,,,0.00,Wunderground v.1.12,2013-04-27 07:58:00,
2013-04-27 04:03:00,37.6,36.3,30.32,N/A,-737280,0.0,0.0,95,0.00,,,0.00,Wunderground v.1.12,2013-04-27 08:03:00,
2013-04-27 04:08:00,36.8,35.5,30.32,SSE,153,0.0,0.0,95,0.00,,,0.00,Wunderground v.1.12,2013-04-27 08:08:00,
2013-04-27 04:14:00,36.6,35.3,30.32,SSE,153,0.0,0.0,95,0.00,,,0.00,Wunderground v.1.12,2013-04-27 08:14:00,
2013-04-27 04:20:00,36.6,35.3,30.32,SSE,153,0.0,0.0,95,0.00,,,0.00,Wunderground v.1.12,2013-04-27 08:20:00,
2013-04-27 04:25:00,36.5,35.2,30.32,SSE,153,0.0,0.0,95,0.00,,,0.00,Wunderground v.1.12,2013-04-27 08:25:00,
2013-04-27 04:31:00,36.3,35.0,30.32,SSE,153,0.0,0.0,95,0.00,,,0.00,Wunderground v.1.12,2013-04-27 08:31:00,
2013-04-27 04:36:00,36.2,34.9,30.32,SSE,153,0.0,0.0,95,0.00,,,0.00,Wunderground v.1.12,2013-04-27 08:36:00,
2013-04-27 04:41:00,35.9,34.6,30.32,SSE,153,0.0,0.0,95,0.00,,,0.00,Wunderground v.1.12,2013-04-27 08:41:00,
2013-04-27 04:47:00,35.6,34.3,30.32,SSE,153,0.0,0.0,95,0.00,,,0.00,Wunderground v.1.12,2013-04-27 08:47:00,
2013-04-27 04:52:00,35.3,34.0,30.32,SSE,153,0.0,0.0,95,0.00,,,0.00,Wunderground v.1.12,2013-04-27 08:52:00,
2013-04-27 04:58:00,35.0,33.7,30.32,SSE,153,0.0,0.0,95,0.00,,,0.00,Wunderground v.1.12,2013-04-27 08:58:00,
2013-04-27 05:03:00,36.3,35.0,30.32,N/A,-737280,0.0,0.0,95,0.00,,,0.00,Wunderground v.1.12,2013-04-27 09:03:00,
2013-04-27 05:08:00,34.6,33.3,30.32,SSE,153,0.0,0.0,95,0.00,,,0.00,Wunderground v.1.12,2013-04-27 09:08:00,
2013-04-27 05:13:00,34.3,33.0,30.32,SSE,153,0.0,0.0,95,0.00,,,0.00,Wunderground v.1.12,2013-04-27 09:13:00,
2013-04-27 05:19:00,33.8,32.5,30.32,SSE,153,0.0,0.0,95,0.00,,,0.00,Wunderground v.1.12,2013-04-27 09:19:00,
2013-04-27 05:24:00,33.8,32.5,30.32,SSE,153,0.0,0.0,95,0.00,,,0.00,Wunderground v.1.12,2013-04-27 09:24:00,
2013-04-27 05:29:00,33.8,32.5,30.32,SSE,153,0.0,0.0,95,0.00,,,0.00,Wunderground v.1.12,2013-04-27 09:29:00,
2013-04-27 05:35:00,33.7,32.4,30.32,SSE,153,0.0,0.0,95,0.00,,,0.00,Wunderground v.1.12,2013-04-27 09:35:00,
2013-04-27 05:40:00,33.8,32.8,30.32,SSE,153,0.0,0.0,96,0.00,,,0.00,Wunderground v.1.12,2013-04-27 09:40:00,
2013-04-27 05:45:00,34.0,33.0,30.32,SSE,153,0.0,0.0,96,0.00,,,0.00,Wunderground v.1.12,2013-04-27 09:45:00,
2013-04-27 05:51:00,34.0,33.0,30.32,SSE,153,0.0,0.0,96,0.00,,,0.00,Wunderground v.1.12,2013-04-27 09:51:00,
2013-04-27 05:56:00,33.8,32.8,30.32,SSE,153,0.0,0.0,96,0.00,,,0.00,Wunderground v.1.12,2013-04-27 09:56:00,
2013-04-27 06:01:00,33.8,32.8,30.32,SSE,153,0.0,0.0,96,0.00,,,0.00,Wunderground v.1.12,2013-04-27 10:01:00,
2013-04-27 06:07:00,33.8,32.8,30.32,SSE,153,0.0,0.0,96,0.00,,,0.00,Wunderground v.1.12,2013-04-27 10:07:00,
2013-04-27 06:12:00,33.8,32.8,30.32,SSE,153,0.0,0.0,96,0.00,,,0.00,Wunderground v.1.12,2013-04-27 10:12:00,
2013-04-27 06:18:00,33.8,32.8,30.32,SSE,153,0.0,0.0,96,0.00,,,0.00,Wunderground v.1.12,2013-04-27 10:18:00,
2013-04-27 06:23:00,34.0,33.0,30.32,SSE,153,0.0,0.0,96,0.00,,,0.00,Wunderground v.1.12,2013-04-27 10:23:00,
2013-04-27 06:28:00,34.4,33.4,30.32,SSE,153,0.0,0.0,96,0.00,,,0.00,Wunderground v.1.12,2013-04-27 10:28:00,
2013-04-27 06:33:00,34.7,33.7,30.32,SSE,153,0.0,0.0,96,0.00,,,0.00,Wunderground v.1.12,2013-04-27 10:33:00,
2013-04-27 06:38:00,35.2,34.4,30.32,SSE,153,0.0,0.0,97,0.00,,,0.00,Wunderground v.1.12,2013-04-27 10:38:00,
2013-04-27 06:44:00,35.5,34.7,30.32,SSE,153,0.0,0.0,97,0.00,,,0.00,Wunderground v.1.12,2013-04-27 10:44:00,
2013-04-27 06:50:00,35.9,35.1,30.32,SSE,153,0.0,0.0,97,0.00,,,0.00,Wunderground v.1.12,2013-04-27 10:50:00,
2013-04-27 06:56:00,36.3,35.5,30.32,SSE,153,0.0,0.0,97,0.00,,,0.00,Wunderground v.1.12,2013-04-27 10:56:00,
2013-04-27 07:02:00,36.6,35.8,30.32,SSE,153,0.0,0.0,97,0.00,,,0.00,Wunderground v.1.12,2013-04-27 11:02:00,
2013-04-27 07:08:00,36.9,36.1,30.32,SSE,153,0.0,0.0,97,0.00,,,0.00,Wunderground v.1.12,2013-04-27 11:08:00,
2013-04-27 07:14:00,37.2,36.4,30.32,SSE,153,0.0,1.0,97,0.00,,,0.00,Wunderground v.1.12,2013-04-27 11:14:00,
2013-04-27 07:19:00,37.5,36.7,30.32,SSE,153,0.0,0.0,97,0.00,,,0.00,Wunderground v.1.12,2013-04-27 11:19:00,
2013-04-27 07:25:00,37.8,37.0,30.32,SSE,153,0.0,0.0,97,0.00,,,0.00,Wunderground v.1.12,2013-04-27 11:25:00,
2013-04-27 07:31:00,38.3,37.5,30.32,SSE,153,0.0,0.0,97,0.00,,,0.00,Wunderground v.1.12,2013-04-27 11:31:00,
2013-04-27 07:36:00,39.1,38.3,30.32,SSE,154,0.0,0.0,97,0.00,,,0.00,Wunderground v.1.12,2013-04-27 11:36:00,
2013-04-27 07:42:00,39.5,38.5,30.32,WSW,255,0.0,0.0,96,0.00,,,0.00,Wunderground v.1.12,2013-04-27 11:42:00,
2013-04-27 07:48:00,40.1,39.1,30.32,WSW,255,0.0,0.0,96,0.00,,,0.00,Wunderground v.1.12,2013-04-27 11:48:00,
2013-04-27 07:53:00,40.6,39.3,30.32,WSW,255,0.0,0.0,95,0.00,,,0.00,Wunderground v.1.12,2013-04-27 11:53:00,
2013-04-27 07:58:00,41.3,39.7,30.32,WSW,255,0.0,1.0,94,0.00,,,0.00,Wunderground v.1.12,2013-04-27 11:58:00,
2013-04-27 08:04:00,41.9,39.7,30.32,WSW,255,0.0,0.0,92,0.00,,,0.00,Wunderground v.1.12,2013-04-27 12:04:00,
2013-04-27 08:09:00,42.9,39.9,30.32,WSW,255,0.0,0.0,89,0.00,,,0.00,Wunderground v.1.12,2013-04-27 12:09:00,
2013-04-27 08:14:00,43.8,39.0,30.32,WSW,255,0.0,0.0,83,0.00,,,0.00,Wunderground v.1.12,2013-04-27 12:14:00,
2013-04-27 08:20:00,44.6,38.5,30.33,WSW,255,0.0,0.0,79,0.00,,,0.00,Wunderground v.1.12,2013-04-27 12:20:00,
2013-04-27 08:25:00,45.7,37.5,30.33,WSW,255,0.0,0.0,73,0.00,,,0.00,Wunderground v.1.12,2013-04-27 12:25:00,
2013-04-27 08:30:00,46.5,37.2,30.32,WSW,255,0.0,0.0,70,0.00,,,0.00,Wunderground v.1.12,2013-04-27 12:30:00,
2013-04-27 08:36:00,47.6,37.6,30.32,WSW,255,0.0,0.0,68,0.00,,,0.00,Wunderground v.1.12,2013-04-27 12:36:00,
2013-04-27 08:42:00,48.8,36.8,30.32,WSW,255,1.0,2.0,63,0.00,,,0.00,Wunderground v.1.12,2013-04-27 12:42:00,
2013-04-27 08:48:00,49.9,36.1,30.32,West,263,1.0,2.0,59,0.00,,,0.00,Wunderground v.1.12,2013-04-27 12:48:00,
2013-04-27 08:53:00,51.0,37.6,30.32,West,263,1.0,1.0,60,0.00,,,0.00,Wunderground v.1.12,2013-04-27 12:53:00,
2013-04-27 08:59:00,51.6,35.5,30.32,West,274,1.0,4.0,54,0.00,,,0.00,Wunderground v.1.12,2013-04-27 12:59:00,
2013-04-27 09:05:00,52.5,35.8,30.32,West,274,1.0,1.0,53,0.00,,,0.00,Wunderground v.1.12,2013-04-27 13:05:00,
2013-04-27 09:10:00,52.9,33.7,30.32,West,274,1.0,1.0,48,0.00,,,0.00,Wunderground v.1.12,2013-04-27 13:10:00,
2013-04-27 09:15:00,53.3,34.1,30.32,West,274,1.0,1.0,48,0.00,,,0.00,Wunderground v.1.12,2013-04-27 13:15:00,
2013-04-27 09:20:00,53.9,33.6,30.32,West,274,1.0,2.0,46,0.00,,,0.00,Wunderground v.1.12,2013-04-27 13:20:00,
2013-04-27 09:26:00,54.1,32.6,30.32,West,274,1.0,1.0,44,0.00,,,0.00,Wunderground v.1.12,2013-04-27 13:26:00,
2013-04-27 09:31:00,54.7,34.3,30.32,West,274,1.0,2.0,46,0.00,,,0.00,Wunderground v.1.12,2013-04-27 13:31:00,
2013-04-27 09:36:00,55.3,30.7,30.32,West,274,0.0,0.0,39,0.00,,,0.00,Wunderground v.1.12,2013-04-27 13:36:00,
2013-04-27 09:41:00,55.6,32.2,30.32,West,274,0.0,2.0,41,0.00,,,0.00,Wunderground v.1.12,2013-04-27 13:41:00,
2013-04-27 09:48:00,56.5,31.8,30.32,West,275,1.0,1.0,39,0.00,,,0.00,Wunderground v.1.12,2013-04-27 13:48:00,
2013-04-27 09:53:00,56.7,33.2,30.32,West,275,1.0,1.0,41,0.00,,,0.00,Wunderground v.1.12,2013-04-27 13:53:00,
2013-04-27 09:59:00,57.5,31.4,30.32,West,281,1.0,3.0,37,0.00,,,0.00,Wunderground v.1.12,2013-04-27 13:59:00,
2013-04-27 10:04:00,57.6,31.5,30.32,West,281,1.0,3.0,37,0.00,,,0.00,Wunderground v.1.12,2013-04-27 14:04:00,
2013-04-27 10:09:00,58.1,31.3,30.32,West,281,1.0,1.0,36,0.00,,,0.00,Wunderground v.1.12,2013-04-27 14:09:00,
2013-04-27 10:15:00,58.3,31.4,30.32,WNW,285,1.0,1.0,36,0.00,,,0.00,Wunderground v.1.12,2013-04-27 14:15:00,
2013-04-27 10:21:00,58.3,34.7,30.32,WNW,285,1.0,1.0,41,0.00,,,0.00,Wunderground v.1.12,2013-04-27 14:21:00,
2013-04-27 10:27:00,59.0,31.4,30.32,WNW,285,1.0,2.0,35,0.00,,,0.00,Wunderground v.1.12,2013-04-27 14:27:00,
2013-04-27 10:33:00,57.6,30.1,30.32,West,270,1.0,4.0,35,0.00,,,0.00,Wunderground v.1.12,2013-04-27 14:33:00,
2013-04-27 10:38:00,56.3,37.4,30.32,East,98,3.0,3.0,49,0.00,,,0.00,Wunderground v.1.12,2013-04-27 14:38:00,
2013-04-27 10:43:00,56.5,36.5,30.32,East,85,2.0,5.0,47,0.00,,,0.00,Wunderground v.1.12,2013-04-27 14:43:00,
2013-04-27 10:49:00,56.2,36.8,30.32,ESE,119,4.0,7.0,48,0.00,,,0.00,Wunderground v.1.12,2013-04-27 14:49:00,
2013-04-27 10:54:00,56.7,36.7,30.32,East,99,3.0,3.0,47,0.00,,,0.00,Wunderground v.1.12,2013-04-27 14:54:00,
2013-04-27 10:59:00,56.0,36.0,30.32,East,86,4.0,5.0,47,0.00,,,0.00,Wunderground v.1.12,2013-04-27 14:59:00,
2013-04-27 11:05:00,55.6,35.7,30.32,ENE,66,4.0,4.0,47,0.00,,,0.00,Wunderground v.1.12,2013-04-27 15:05:00,
2013-04-27 11:10:00,55.9,35.9,30.32,ENE,69,3.0,4.0,47,0.00,,,0.00,Wunderground v.1.12,2013-04-27 15:10:00,
2013-04-27 11:15:00,56.6,36.0,30.32,ENE,67,2.0,4.0,46,0.00,,,0.00,Wunderground v.1.12,2013-04-27 15:15:00,
2013-04-27 11:21:00,56.0,35.5,30.32,East,86,3.0,3.0,46,0.00,,,0.00,Wunderground v.1.12,2013-04-27 15:21:00,
2013-04-27 11:26:00,56.0,36.0,30.32,ENE,69,4.0,4.0,47,0.00,,,0.00,Wunderground v.1.12,2013-04-27 15:26:00,
2013-04-27 11:32:00,56.5,33.7,30.33,ENE,68,3.0,6.0,42,0.00,,,0.00,Wunderground v.1.12,2013-04-27 15:32:00,
2013-04-27 11:38:00,55.9,34.3,30.33,ESE,105,4.0,7.0,44,0.00,,,0.00,Wunderground v.1.12,2013-04-27 15:38:00,
2013-04-27 11:43:00,55.7,35.2,30.33,ENE,72,4.0,5.0,46,0.00,,,0.00,Wunderground v.1.12,2013-04-27 15:43:00,
2013-04-27 11:48:00,56.0,35.5,30.32,East,88,4.0,5.0,46,0.00,,,0.00,Wunderground v.1.12,2013-04-27 15:48:00,
2013-04-27 11:53:00,56.5,35.4,30.32,ENE,67,3.0,4.0,45,0.00,,,0.00,Wunderground v.1.12,2013-04-27 15:53:00,
2013-04-27 11:58:00,56.7,35.0,30.32,East,100,3.0,3.0,44,0.00,,,0.00,Wunderground v.1.12,2013-04-27 15:58:00,
2013-04-27 12:03:00,56.7,34.4,30.33,ENE,68,3.0,7.0,43,0.00,,,0.00,Wunderground v.1.12,2013-04-27 16:03:00,
2013-04-27 12:08:00,57.0,34.7,30.32,ESE,117,3.0,5.0,43,0.00,,,0.00,Wunderground v.1.12,2013-04-27 16:08:00,
2013-04-27 12:13:00,57.2,36.6,30.32,ESE,105,3.0,6.0,46,0.00,,,0.00,Wunderground v.1.12,2013-04-27 16:13:00,
2013-04-27 12:18:00,56.7,36.1,30.31,ENE,75,4.0,4.0,46,0.00,,,0.00,Wunderground v.1.12,2013-04-27 16:18:00,
2013-04-27 12:24:00,57.2,35.5,30.31,East,81,4.0,4.0,44,0.00,,,0.00,Wunderground v.1.12,2013-04-27 16:24:00,
2013-04-27 12:30:00,57.0,35.3,30.31,East,85,3.0,3.0,44,0.00,,,0.00,Wunderground v.1.12,2013-04-27 16:30:00,
2013-04-27 12:35:00,58.0,35.6,30.30,East,98,3.0,3.0,43,0.00,,,0.00,Wunderground v.1.12,2013-04-27 16:35:00,
2013-04-27 12:40:00,57.8,32.3,30.30,East,94,2.0,5.0,38,0.00,,,0.00,Wunderground v.1.12,2013-04-27 16:40:00,
2013-04-27 12:45:00,57.6,33.4,30.30,East,98,3.0,3.0,40,0.00,,,0.00,Wunderground v.1.12,2013-04-27 16:45:00,
2013-04-27 12:52:00,57.8,32.3,30.30,East,90,3.0,3.0,38,0.00,,,0.00,Wunderground v.1.12,2013-04-27 16:52:00,
2013-04-27 12:57:00,57.2,32.4,30.30,ENE,67,3.0,6.0,39,0.00,,,0.00,Wunderground v.1.12,2013-04-27 16:57:00,
2013-04-27 13:03:00,57.2,36.0,30.30,East,90,3.0,9.0,45,0.00,,,0.00,Wunderground v.1.12,2013-04-27 17:03:00,
2013-04-27 13:08:00,55.9,30.6,30.29,East,80,5.0,6.0,38,0.00,,,0.00,Wunderground v.1.12,2013-04-27 17:08:00,
2013-04-27 13:13:00,55.9,33.7,30.29,East,92,4.0,5.0,43,0.00,,,0.00,Wunderground v.1.12,2013-04-27 17:13:00,
2013-04-27 13:19:00,56.5,34.8,30.29,East,89,3.0,4.0,44,0.00,,,0.00,Wunderground v.1.12,2013-04-27 17:19:00,
2013-04-27 13:24:00,56.5,33.7,30.29,ESE,109,3.0,3.0,42,0.00,,,0.00,Wunderground v.1.12,2013-04-27 17:24:00,
2013-04-27 13:31:00,56.2,34.0,30.29,East,88,4.0,4.0,43,0.00,,,0.00,Wunderground v.1.12,2013-04-27 17:31:00,
2013-04-27 13:37:00,56.3,31.0,30.29,East,88,4.0,4.0,38,0.00,,,0.00,Wunderground v.1.12,2013-04-27 17:37:00,
2013-04-27 13:43:00,57.2,31.8,30.29,ENE,76,3.0,3.0,38,0.00,,,0.00,Wunderground v.1.12,2013-04-27 17:43:00,
2013-04-27 13:49:00,57.5,29.3,30.28,East,84,3.0,6.0,34,0.00,,,0.00,Wunderground v.1.12,2013-04-27 17:49:00,
2013-04-27 13:54:00,57.5,29.3,30.28,East,94,4.0,7.0,34,0.00,,,0.00,Wunderground v.1.12,2013-04-27 17:54:00,
2013-04-27 13:59:00,57.5,31.4,30.28,SE,125,3.0,3.0,37,0.00,,,0.00,Wunderground v.1.12,2013-04-27 17:59:00,
2013-04-27 14:04:00,58.0,30.5,30.28,East,97,3.0,4.0,35,0.00,,,0.00,Wunderground v.1.12,2013-04-27 18:04:00,
2013-04-27 14:09:00,58.1,29.1,30.28,ESE,103,3.0,3.0,33,0.00,,,0.00,Wunderground v.1.12,2013-04-27 18:09:00,
2013-04-27 14:14:00,58.1,30.6,30.28,ESE,110,3.0,3.0,35,0.00,,,0.00,Wunderground v.1.12,2013-04-27 18:14:00,
2013-04-27 14:21:00,58.3,30.7,30.27,East,90,3.0,4.0,35,0.00,,,0.00,Wunderground v.1.12,2013-04-27 18:21:00,
2013-04-27 14:26:00,58.1,32.6,30.27,East,90,3.0,6.0,38,0.00,,,0.00,Wunderground v.1.12,2013-04-27 18:26:00,
2013-04-27 14:32:00,58.3,32.1,30.27,SE,124,3.0,5.0,37,0.00,,,0.00,Wunderground v.1.12,2013-04-27 18:32:00,
2013-04-27 14:38:00,58.0,31.2,30.27,East,98,4.0,11.0,36,0.00,,,0.00,Wunderground v.1.12,2013-04-27 18:38:00,
2013-04-27 14:43:00,58.6,31.7,30.27,SSE,161,4.0,9.0,36,0.00,,,0.00,Wunderground v.1.12,2013-04-27 18:43:00,
2013-04-27 14:48:00,58.3,32.1,30.26,East,93,3.0,5.0,37,0.00,,,0.00,Wunderground v.1.12,2013-04-27 18:48:00,
2013-04-27 14:55:00,58.6,33.0,30.26,ESE,115,4.0,4.0,38,0.00,,,0.00,Wunderground v.1.12,2013-04-27 18:55:00,
2013-04-27 15:00:00,59.3,32.3,30.26,ESE,115,2.0,5.0,36,0.00,,,0.00,Wunderground v.1.12,2013-04-27 19:00:00,
2013-04-27 15:05:00,58.9,32.7,30.26,ENE,76,3.0,3.0,37,0.00,,,0.00,Wunderground v.1.12,2013-04-27 19:05:00,
2013-04-27 15:12:00,59.0,33.4,30.26,ESE,115,4.0,4.0,38,0.00,,,0.00,Wunderground v.1.12,2013-04-27 19:12:00,
2013-04-27 15:18:00,59.2,32.9,30.25,ESE,104,3.0,5.0,37,0.00,,,0.00,Wunderground v.1.12,2013-04-27 19:18:00,
2013-04-27 15:23:00,58.7,32.5,30.25,East,96,4.0,6.0,37,0.00,,,0.00,Wunderground v.1.12,2013-04-27 19:23:00,
2013-04-27 15:28:00,58.9,33.3,30.25,South,175,4.0,7.0,38,0.00,,,0.00,Wunderground v.1.12,2013-04-27 19:28:00,
2013-04-27 15:34:00,59.5,33.2,30.24,ESE,103,3.0,3.0,37,0.00,,,0.00,Wunderground v.1.12,2013-04-27 19:34:00,
2013-04-27 15:40:00,59.6,33.3,30.24,ENE,67,3.0,3.0,37,0.00,,,0.00,Wunderground v.1.12,2013-04-27 19:40:00,
2013-04-27 15:45:00,60.1,34.4,30.24,East,91,2.0,5.0,38,0.00,,,0.00,Wunderground v.1.12,2013-04-27 19:45:00,
2013-04-27 15:50:00,59.5,33.2,30.24,SSE,163,3.0,3.0,37,0.00,,,0.00,Wunderground v.1.12,2013-04-27 19:50:00,
2013-04-27 15:56:00,59.5,33.9,30.24,East,94,3.0,3.0,38,0.00,,,0.00,Wunderground v.1.12,2013-04-27 19:56:00,
2013-04-27 16:01:00,59.2,31.5,30.23,East,85,3.0,6.0,35,0.00,,,0.00,Wunderground v.1.12,2013-04-27 20:01:00,
2013-04-27 16:07:00,58.7,32.5,30.23,East,89,4.0,5.0,37,0.00,,,0.00,Wunderground v.1.12,2013-04-27 20:07:00,
2013-04-27 16:13:00,58.9,32.7,30.23,East,90,4.0,4.0,37,0.00,,,0.00,Wunderground v.1.12,2013-04-27 20:13:00,
2013-04-27 16:18:00,58.7,31.1,30.23,SE,125,3.0,4.0,35,0.00,,,0.00,Wunderground v.1.12,2013-04-27 20:18:00,
2013-04-27 16:23:00,58.9,32.0,30.23,East,84,3.0,6.0,36,0.00,,,0.00,Wunderground v.1.12,2013-04-27 20:23:00,
2013-04-27 16:29:00,58.7,31.8,30.23,East,84,3.0,7.0,36,0.00,,,0.00,Wunderground v.1.12,2013-04-27 20:29:00,
2013-04-27 16:34:00,58.6,31.0,30.23,East,96,4.0,4.0,35,0.00,,,0.00,Wunderground v.1.12,2013-04-27 20:34:00,
2013-04-27 16:39:00,58.4,32.9,30.23,East,80,4.0,4.0,38,0.00,,,0.00,Wunderground v.1.12,2013-04-27 20:39:00,
2013-04-27 16:44:00,58.4,32.2,30.23,ENE,77,3.0,3.0,37,0.00,,,0.00,Wunderground v.1.12,2013-04-27 20:44:00,
2013-04-27 16:49:00,58.7,33.1,30.23,East,101,3.0,3.0,38,0.00,,,0.00,Wunderground v.1.12,2013-04-27 20:49:00,
2013-04-27 16:54:00,58.4,32.9,30.23,East,98,3.0,3.0,38,0.00,,,0.00,Wunderground v.1.12,2013-04-27 20:54:00,
2013-04-27 17:00:00,58.1,31.9,30.22,ESE,102,4.0,4.0,37,0.00,,,0.00,Wunderground v.1.12,2013-04-27 21:00:00,
2013-04-27 17:06:00,58.0,32.5,30.22,South,187,4.0,4.0,38,0.00,,,0.00,Wunderground v.1.12,2013-04-27 21:06:00,
2013-04-27 17:12:00,57.8,32.3,30.22,East,92,4.0,4.0,38,0.00,,,0.00,Wunderground v.1.12,2013-04-27 21:12:00,
2013-04-27 17:18:00,58.1,32.6,30.22,East,85,3.0,5.0,38,0.00,,,0.00,Wunderground v.1.12,2013-04-27 21:18:00,
2013-04-27 17:23:00,57.6,33.4,30.22,East,98,3.0,6.0,40,0.00,,,0.00,Wunderground v.1.12,2013-04-27 21:23:00,
2013-04-27 17:29:00,57.5,34.0,30.22,ESE,103,3.0,3.0,41,0.00,,,0.00,Wunderground v.1.12,2013-04-27 21:29:00,
2013-04-27 17:34:00,57.8,33.0,30.22,East,95,2.0,2.0,39,0.00,,,0.00,Wunderground v.1.12,2013-04-27 21:34:00,
2013-04-27 17:39:00,57.5,32.7,30.22,East,86,2.0,3.0,39,0.00,,,0.00,Wunderground v.1.12,2013-04-27 21:39:00,
2013-04-27 17:46:00,57.5,34.0,30.22,SE,129,2.0,2.0,41,0.00,,,0.00,Wunderground v.1.12,2013-04-27 21:46:00,
2013-04-27 17:51:00,56.9,33.4,30.22,ESE,111,2.0,4.0,41,0.00,,,0.00,Wunderground v.1.12,2013-04-27 21:51:00,
2013-04-27 17:56:00,56.9,34.0,30.22,East,98,3.0,4.0,42,0.00,,,0.00,Wunderground v.1.12,2013-04-27 21:56:00,
2013-04-27 18:01:00,56.6,33.8,30.22,East,94,2.0,7.0,42,0.00,,,0.00,Wunderground v.1.12,2013-04-27 22:01:00,
2013-04-27 18:06:00,56.5,33.7,30.22,SSE,155,2.0,2.0,42,0.00,,,0.00,Wunderground v.1.12,2013-04-27 22:06:00,
2013-04-27 18:11:00,56.3,34.1,30.22,East,82,2.0,3.0,43,0.00,,,0.00,Wunderground v.1.12,2013-04-27 22:11:00,
2013-04-27 18:18:00,56.5,34.8,30.22,East,98,2.0,2.0,44,0.00,,,0.00,Wunderground v.1.12,2013-04-27 22:18:00,
2013-04-27 18:23:00,56.6,33.8,30.22,ENE,66,1.0,3.0,42,0.00,,,0.00,Wunderground v.1.12,2013-04-27 22:23:00,
2013-04-27 18:28:00,56.6,33.8,30.22,SSE,163,1.0,1.0,42,0.00,,,0.00,Wunderground v.1.12,2013-04-27 22:28:00,
2013-04-27 18:34:00,56.6,33.8,30.22,East,90,2.0,7.0,42,0.00,,,0.00,Wunderground v.1.12,2013-04-27 22:34:00,
2013-04-27 18:40:00,55.9,32.5,30.22,ESE,112,2.0,2.0,41,0.00,,,0.00,Wunderground v.1.12,2013-04-27 22:40:00,
2013-04-27 18:45:00,55.6,32.8,30.22,East,80,2.0,4.0,42,0.00,,,0.00,Wunderground v.1.12,2013-04-27 22:45:00,
2013-04-27 18:51:00,55.3,32.0,30.22,East,84,2.0,3.0,41,0.00,,,0.00,Wunderground v.1.12,2013-04-27 22:51:00,
2013-04-27 18:57:00,54.8,32.7,30.22,SE,133,2.0,2.0,43,0.00,,,0.00,Wunderground v.1.12,2013-04-27 22:57:00,
2013-04-27 19:02:00,54.7,33.2,30.22,East,95,2.0,4.0,44,0.00,,,0.00,Wunderground v.1.12,2013-04-27 23:02:00,
2013-04-27 19:08:00,54.4,32.9,30.22,East,92,2.0,2.0,44,0.00,,,0.00,Wunderground v.1.12,2013-04-27 23:08:00,
2013-04-27 19:13:00,54.2,33.3,30.22,East,80,1.0,3.0,45,0.00,,,0.00,Wunderground v.1.12,2013-04-27 23:13:00,
2013-04-27 19:18:00,54.1,33.8,30.22,ENE,67,1.0,1.0,46,0.00,,,0.00,Wunderground v.1.12,2013-04-27 23:18:00,
2013-04-27 19:23:00,53.8,33.5,30.22,East,96,1.0,1.0,46,0.00,,,0.00,Wunderground v.1.12,2013-04-27 23:23:00,
2013-04-27 19:29:00,53.5,34.3,30.22,South,183,1.0,4.0,48,0.00,,,0.00,Wunderground v.1.12,2013-04-27 23:29:00,
2013-04-27 19:34:00,53.3,34.1,30.22,ESE,118,1.0,1.0,48,0.00,,,0.00,Wunderground v.1.12,2013-04-27 23:34:00,
2013-04-27 19:39:00,53.1,33.9,30.22,ESE,106,0.0,2.0,48,0.00,,,0.00,Wunderground v.1.12,2013-04-27 23:39:00,
2013-04-27 19:44:00,52.8,33.1,30.22,ESE,107,0.0,0.0,47,0.00,,,0.00,Wunderground v.1.12,2013-04-27 23:44:00,
2013-04-27 19:49:00,52.6,32.9,30.22,ESE,116,0.0,0.0,47,0.00,,,0.00,Wunderground v.1.12,2013-04-27 23:49:00,
2013-04-27 19:55:00,52.5,33.4,30.22,ESE,116,0.0,0.0,48,0.00,,,0.00,Wunderground v.1.12,2013-04-27 23:55:00,
2013-04-27 20:00:00,52.2,32.6,30.22,SSE,150,0.0,1.0,47,0.00,,,0.00,Wunderground v.1.12,2013-04-28 00:00:00,
2013-04-27 20:05:00,52.0,32.9,30.22,South,187,1.0,1.0,48,0.00,,,0.00,Wunderground v.1.12,2013-04-28 00:05:00,
2013-04-27 20:11:00,51.9,33.3,30.22,SSE,164,0.0,0.0,49,0.00,,,0.00,Wunderground v.1.12,2013-04-28 00:11:00,
2013-04-27 20:16:00,51.6,34.0,30.22,East,96,0.0,2.0,51,0.00,,,0.00,Wunderground v.1.12,2013-04-28 00:16:00,
2013-04-27 20:23:00,51.1,33.6,30.22,SSE,149,0.0,1.0,51,0.00,,,0.00,Wunderground v.1.12,2013-04-28 00:23:00,
2013-04-27 20:28:00,51.0,34.0,30.22,SSE,148,0.0,0.0,52,0.00,,,0.00,Wunderground v.1.12,2013-04-28 00:28:00,
2013-04-27 20:33:00,52.2,32.6,30.22,ESE,113,0.0,5.0,47,0.00,,,0.00,Wunderground v.1.12,2013-04-28 00:33:00,
2013-04-27 20:38:00,50.5,34.5,30.23,SE,131,0.0,0.0,54,0.00,,,0.00,Wunderground v.1.12,2013-04-28 00:38:00,
2013-04-27 20:43:00,50.4,34.8,30.23,SE,131,0.0,0.0,55,0.00,,,0.00,Wunderground v.1.12,2013-04-28 00:43:00,
2013-04-27 20:51:00,49.9,34.4,30.23,SE,131,0.0,0.0,55,0.00,,,0.00,Wunderground v.1.12,2013-04-28 00:51:00,
2013-04-27 20:56:00,49.8,34.7,30.23,SE,131,0.0,0.0,56,0.00,,,0.00,Wunderground v.1.12,2013-04-28 00:56:00,
2013-04-27 21:02:00,49.6,35.0,30.23,SE,131,0.0,1.0,57,0.00,,,0.00,Wunderground v.1.12,2013-04-28 01:02:00,
2013-04-27 21:08:00,49.4,35.2,30.23,SE,131,0.0,0.0,58,0.00,,,0.00,Wunderground v.1.12,2013-04-28 01:08:00,
2013-04-27 21:13:00,49.1,35.8,30.23,SE,131,0.0,0.0,60,0.00,,,0.00,Wunderground v.1.12,2013-04-28 01:13:00,
2013-04-27 21:19:00,48.8,35.5,30.24,SE,131,0.0,0.0,60,0.00,,,0.00,Wunderground v.1.12,2013-04-28 01:19:00,
2013-04-27 21:25:00,48.5,35.7,30.24,SE,131,0.0,0.0,61,0.00,,,0.00,Wunderground v.1.12,2013-04-28 01:25:00,
2013-04-27 21:30:00,48.2,36.6,30.24,SE,131,0.0,0.0,64,0.00,,,0.00,Wunderground v.1.12,2013-04-28 01:30:00,
2013-04-27 21:35:00,48.0,36.8,30.24,SE,131,0.0,0.0,65,0.00,,,0.00,Wunderground v.1.12,2013-04-28 01:35:00,
2013-04-27 21:41:00,47.9,37.1,30.24,SE,131,0.0,0.0,66,0.00,,,0.00,Wunderground v.1.12,2013-04-28 01:41:00,
2013-04-27 21:47:00,47.7,36.9,30.24,SE,131,0.0,0.0,66,0.00,,,0.00,Wunderground v.1.12,2013-04-28 01:47:00,
2013-04-27 21:53:00,47.6,36.8,30.24,SE,131,0.0,0.0,66,0.00,,,0.00,Wunderground v.1.12,2013-04-28 01:53:00,
2013-04-27 21:59:00,47.4,37.0,30.24,SE,131,0.0,0.0,67,0.00,,,0.00,Wunderground v.1.12,2013-04-28 01:59:00,
2013-04-27 22:04:00,47.1,36.7,30.24,SE,131,0.0,0.0,67,0.00,,,0.00,Wunderground v.1.12,2013-04-28 02:04:00,
2013-04-27 22:09:00,47.0,37.4,30.24,SE,131,0.0,0.0,69,0.00,,,0.00,Wunderground v.1.12,2013-04-28 02:09:00,
2013-04-27 22:16:00,46.8,37.5,30.24,SE,131,0.0,0.0,70,0.00,,,0.00,Wunderground v.1.12,2013-04-28 02:16:00,
2013-04-27 22:21:00,46.7,37.8,30.24,SE,131,0.0,0.0,71,0.00,,,0.00,Wunderground v.1.12,2013-04-28 02:21:00,
2013-04-27 22:28:00,46.7,37.8,30.24,SE,131,0.0,0.0,71,0.00,,,0.00,Wunderground v.1.12,2013-04-28 02:28:00,
2013-04-27 22:34:00,46.2,37.3,30.24,SE,131,0.0,0.0,71,0.00,,,0.00,Wunderground v.1.12,2013-04-28 02:34:00,
2013-04-27 22:40:00,46.0,37.5,30.24,SE,131,0.0,0.0,72,0.00,,,0.00,Wunderground v.1.12,2013-04-28 02:40:00,
2013-04-27 22:45:00,46.0,37.8,30.24,SE,131,0.0,0.0,73,0.00,,,0.00,Wunderground v.1.12,2013-04-28 02:45:00,
2013-04-27 22:50:00,46.4,38.6,30.24,SE,131,0.0,0.0,74,0.00,,,0.00,Wunderground v.1.12,2013-04-28 02:50:00,
2013-04-27 22:55:00,46.5,38.3,30.24,SE,131,0.0,0.0,73,0.00,,,0.00,Wunderground v.1.12,2013-04-28 02:55:00,
2013-04-27 23:01:00,46.5,38.0,30.24,SE,131,0.0,0.0,72,0.00,,,0.00,Wunderground v.1.12,2013-04-28 03:01:00,
2013-04-27 23:07:00,46.5,38.0,30.24,SE,131,0.0,0.0,72,0.00,,,0.00,Wunderground v.1.12,2013-04-28 03:07:00,
2013-04-27 23:13:00,46.4,38.2,30.24,SE,131,0.0,0.0,73,0.00,,,0.00,Wunderground v.1.12,2013-04-28 03:13:00,
2013-04-27 23:18:00,46.2,38.0,30.24,SE,131,0.0,0.0,73,0.00,,,0.00,Wunderground v.1.12,2013-04-28 03:18:00,
2013-04-27 23:23:00,46.1,38.3,30.24,SE,131,0.0,0.0,74,0.00,,,0.00,Wunderground v.1.12,2013-04-28 03:23:00,
2013-04-27 23:28:00,46.0,38.2,30.24,SE,131,0.0,0.0,74,0.00,,,0.00,Wunderground v.1.12,2013-04-28 03:28:00,
2013-04-27 23:33:00,45.8,38.0,30.25,SE,131,0.0,0.0,74,0.00,,,0.00,Wunderground v.1.12,2013-04-28 03:33:00,
2013-04-27 23:40:00,45.5,37.7,30.25,SE,131,0.0,0.0,74,0.00,,,0.00,Wunderground v.1.12,2013-04-28 03:40:00,
2013-04-27 23:45:00,45.1,37.6,30.25,SE,131,0.0,0.0,75,0.00,,,0.00,Wunderground v.1.12,2013-04-28 03:45:00,
2013-04-27 23:50:00,44.8,37.7,30.25,SE,131,0.0,0.0,76,0.00,,,0.00,Wunderground v.1.12,2013-04-28 03:50:00,
2013-04-27 23:55:00,44.6,37.5,30.25,SE,131,0.0,0.0,76,0.00,,,0.00,Wunderground v.1.12,2013-04-28 03:55:00,